Regional Weather Roundup
Issued by NWS

Home | Current Version | Previous Version | Graphics & Text | Print | Product List | Glossary On
Versions: 1 2 3 4 5 6 7 8 9 10 11 12 13 14 15 16 17 18 19 20 21 22 23 24 25 26 27 28 29 30 31 32 33 34 35 36 37 38 39 40 41 42 43 44 45 46 47 48 49 50
000
ASUS43 KDTX 300201
RWRMI
MICHIGAN HOURLY REGIONAL WEATHER ROUNDUP
NATIONAL WEATHER SERVICE DETROIT/PONTIAC MI
1000 PM EDT MON JUN 29 2015

NOTE: "FAIR" INDICATES FEW OR NO CLOUDS BELOW 12,000 FEET WITH NO
SIGNIFICANT WEATHER AND/OR OBSTRUCTION TO VISIBILITY.

MIZ047>049-052>055-059>063-066>070-074>076-081>083-300300-
SOUTHEAST LOWER MICHIGAN

CITY           SKY/WX    TMP DP  RH WIND       PRES   REMARKS
ADRIAN         CLOUDY    64  57  78 SE3       29.85R
ALMA           CLEAR     64  58  81 CALM      29.84R
ANN ARBOR      CLOUDY    65  57  75 S5        29.84S
BAD AXE        CLEAR     63  54  72 CALM      29.86R
CARO           CLEAR     61  57  87 CALM      29.84R
DETROIT CITY   PTCLDY    66  57  72 SE5       29.85S
DETROIT        MOCLDY    67  58  72 SE3       29.84F
FLINT          PTCLDY    67  54  63 S5        29.84R
GROSSE ILE       N/A     66  59  77 SE5       29.83S
HILLSDALE      CLOUDY    63  62  97 CALM      29.85R
HOWELL         PTCLDY    64  56  77 CALM      29.85R

CITY           SKY/WX    TMP DP  RH WIND       PRES   REMARKS
JACKSON        CLOUDY    64  58  80 S3        29.84S
LAMBERTVILLE   CLOUDY    65  58  79 CALM      29.84S
LANSING        CLEAR     64  55  72 S8        29.84R
LAPEER         FAIR      64  53  69 CALM      29.85R
MASON          CLOUDY    61  56  82 CALM      29.84S
MONROE         CLOUDY    65  58  75 SE6       29.83R
MT. CLEMENS    MOCLDY    65  59  81 S6        29.84R HAZE
PONTIAC        PTCLDY    65  55  70 S3        29.84S
PORT HOPE        N/A     69  56  62 CALM      29.83R
PORT HURON     PTCLDY    59  57  94 CALM      29.87R
TRI CITIES     CLEAR     69  58  67 S3        29.84R
MIDLAND        FAIR      67  57  69 CALM      29.83R
TROY           PTCLDY    68  56  66 CALM      29.87R
SAGINAW HB     CLEAR     64  55  72 S3        29.83R
$$
MIZ043>046-050>051-056>058-064>065-071>073-077>080-300300-
SOUTHWEST LOWER MICHIGAN

CITY           SKY/WX    TMP DP  RH WIND       PRES   REMARKS
BATTLE CREEK   CLOUDY    66  57  72 S5        29.85R
BENTON HARBOR  CLEAR     64  59  83 SE3       29.81S
BIG RAPIDS     CLEAR     64  57  79 CALM      29.82S
COLDWATER      CLOUDY    63  57  82 CALM      29.84S
FREMONT        FAIR      64  59  84 CALM      29.81S
HOLLAND        CLEAR     66  58  75 S6        29.82S
GRAND RAPIDS   PTCLDY    65  58  78 S5        29.83R
IONIA          FAIR      67  57  69 S5        29.83R
KALAMAZOO      CLOUDY    65  57  75 VRB3      29.84R
LUDINGTON      CLEAR     66  61  84 S5        29.80F
MARSHALL       CLOUDY    64  57  78 S3        29.84S
MOUNT PLEASANT CLEAR     69  56  65 CALM      29.83R
MUSKEGON       PTCLDY    64  60  87 CALM      29.81S
SOUTH HAVEN    CLEAR     64  58  83 SE3       29.82S
$$
MIZ016>042-300300-
NORTHERN LOWER MICHIGAN

CITY           SKY/WX    TMP DP  RH WIND       PRES   REMARKS
ALPENA         LGT RAIN  70  55  59 S7        29.80R
BEAVER ISLAND  PTCLDY    64  55  72 SW7       29.79S
BELLAIRE       CLOUDY    70  54  57 CALM      29.80S
CADILLAC       PTCLDY    64  57  76 S3        29.82F
CHARLEVOIX     CLOUDY    67  55  65 SE5       29.83R
FRANKFORT      CLEAR     68  57  69 SW6       29.79F
GAYLORD        CLOUDY    69  55  60 W7        29.83R
GRAYLING       MOCLDY    63  56  79 CALM      29.84S
HARBOR SPRINGS CLOUDY    64  54  72 CALM      29.81S
HOUGHTON LAKE  PTCLDY    65  56  72 S7        29.84S
MANISTEE       CLEAR     66  57  72 SW3       29.80F
OSCODA         CLEAR     67  55  64 SW5       29.82R
PELLSTON       MOCLDY    68  51  54 W3        29.81R
ROGERS CITY    CLOUDY    68  58  71 W5        29.80R
TRAVERSE CITY  PTCLDY    65  62  90 CALM      29.78F
$$
MIZ007>008-015-300300-
EASTERN UPPER MICHIGAN

CITY           SKY/WX    TMP DP  RH WIND       PRES   REMARKS
KINROSS        PTCLDY    70  52  52 S5        29.79R
MACKINAC ISLAN PTCLDY    64  52  64 SW7       29.80R
NEWBERRY       MOCLDY    63  55  74 S6        29.78R
S. S. MARIE    CLEAR     66  49  54 CALM      29.78R
MUNISING         N/A     66  63  90 CALM      29.74S
$$
MIZ004>006-011>014-085-300300-
CENTRAL UPPER MICHIGAN

CITY           SKY/WX    TMP DP  RH WIND       PRES   REMARKS
MANISTIQUE     CLOUDY    59  55  87 S7        29.77S
ESCANABA       CLOUDY    70  57  64 SW6       29.73F
MENOMINEE      CLOUDY    66  61  82 SE3       29.74F
SAWYER-GWINN   CLOUDY    61  57  88 W6        29.77S
$$
MIZ001>003-009>011-084-300300-
WESTERN UPPER MICHIGAN

CITY           SKY/WX    TMP DP  RH WIND       PRES   REMARKS
IRON MOUNTAIN  CLOUDY    61  60  97 CALM      29.76F FOG
HOUGHTON       RAIN      59  57  93 NW7       29.77F FOG
COPPER HARBOR    N/A     51  50  96 NE5       29.77S
$$

ABBREVIATIONS USED IN REMARKS
   TC - TEMPERATURE IN CELSIUS
  WCI - WIND CHILL INDEX
   HX - HEAT INDEX
  VSB - VISIBILITY




USA.gov is the U.S. government's official web portal to all federal, state and local government web resources and services.